Location: Astronomy Club of Akron Observatory
(40.9700°N, 81.5606°W)
Time: 01:40:00
(UTC-04:00)

ATLAS 2AS CENTAUR R/B - Visible Passes

Search period start: 18 September 2014 00:00
Search period end: 28 September 2014 00:00
Orbit: 919 x 1293 km, 63.7° (Epoch: 07 September)

Date Brightness Start Highest point End Pass type
(mag) Time Alt. Az. Time Alt. Az. Time Alt. Az.
19 Sep 4.8 06:32:23 10° S 06:38:24 32° ESE 06:44:53 10° NE visible
20 Sep 5.2 05:49:27 10° SSE 05:54:09 19° ESE 05:59:07 10° ENE visible
21 Sep 5.7 05:08:58 10° ESE 05:10:03 10° E 05:11:10 10° E visible
22 Sep 4.1 06:08:26 10° S 06:14:55 42° ESE 06:21:58 10° NE visible
23 Sep 4.8 05:25:00 10° SSE 05:30:35 26° ESE 05:36:34 10° NE visible
24 Sep 5.2 04:42:34 10° SE 04:46:25 15° ESE 04:50:24 10° ENE visible
24 Sep 3.0 06:29:02 10° SSW 06:36:06 83° ESE 06:43:52 10° NE visible
25 Sep 3.5 05:44:42 10° SSW 05:51:30 55° ESE 05:58:57 10° NE visible
26 Sep 4.2 05:00:53 10° S 05:07:05 35° ESE 05:13:46 10° NE visible
26 Sep 3.2 06:50:44 10° SW 06:57:44 54° NW 07:05:23 10° NNE visible
27 Sep 4.8 04:18:03 11° SSE 04:22:48 21° ESE 04:28:09 10° ENE visible
27 Sep 2.9 06:05:45 10° SW 06:12:51 79° NW 06:20:40 10° NNE visible
